Weather in Staryye Petushki

Russia / Vladimir Oblast     55°56′27″N   39°28′58″E
temp.,
°C
wind,
m/s
gust,
m/s
humid.,
%
clouds,
%
prec.,
mm/h
press.,
hPa
HPBL,
m
7 march, sun
sun700:00−13sw23940 0.0 101254
03:00−13ssw310940 0.0 1009216
06:00−9ssw5138797 0.0 1005583
09:00−7ssw7139299 0.9 1000886
12:00−4sw71391100 1.3 9961089
15:00−2sw61294100 3.2 993968
18:00−4nne2286100 1.8 99265
21:00−7w2294100 2.1 99240
8 march, mon
mon800:00−9w379489 0.0 993200
03:00−7w398794 0.5 995512
06:00−10sw31094100 0.0 995399
09:00−8wsw4992100 0.2 995703
12:00−6w4685100 0.7 997841
15:00−5nnw5776100 1.4 10001223
18:00−8nw389166 0.1 1003238
21:00−12nw389461 0.1 1007205
9 march, tue
tue900:00−15nw369617 0.0 1008137
03:00−16nw369626 0.0 1010146
06:00−16nnw279685 0.0 1012218
09:00−17nnw369284 0.0 1014341
12:00−13nnw248593 0.0 1016573
15:00−12nnw358397 0.1 1017755
18:00−15nnw3792100 0.1 1018266
21:00−20nnw389799 0.1 1021216
10 march, wed
wed1000:00−23nnw269718 0.0 1022124
03:00−25nnw24979 0.0 102491
06:00−26nnw23970 0.0 102562
09:00−22n24920 0.0 1026244
12:00−16n23750 0.0 1027486
15:00−14n237411 0.0 1027725
18:00−18nnw128920 0.0 102720
21:00−20wnw229111 0.0 102820
11 march, thu
thu1100:00−21w22940 0.0 102820
03:00−22w12900 0.0 102920
06:00−22wsw229144 0.0 102920
09:00−17sw138439 0.0 1028149
12:00−11s25750 0.0 1027379
15:00−8s478112 0.0 1026621
18:00−11s389499 0.0 1024366
21:00−13s499699 0.1 1023336